Regional Weather Roundup
Issued by NWS

Home | Current Version | Previous Version | Text Only | Print | Product List | Glossary On
Versions: 1 2 3 4 5 6 7 8 9 10 11 12 13 14 15 16 17 18 19 20 21 22 23 24 25 26 27 28 29 30 31 32 33 34 35 36 37 38 39 40 41 42 43 44 45 46 47 48 49 50
000
ASUS43 KTOP 311908
RWRKS

WEATHER ROUNDUP FOR KANSAS
NATIONAL WEATHER SERVICE GOODLAND KS
100 PM CST SAT JAN 31 2015

NOTE:  "FAIR" INDICATES FEW OR NO CLOUDS BELOW 12,000 FEET WITH NO
SIGNIFICANT WEATHER AND/OR OBSTRUCTIONS TO VISIBILITY.

KSZ001>006-013>018-027>032-041>047-312000-
NORTHWEST KANSAS

CITY           SKY/WX    TMP DP  RH WIND       PRES   REMARKS
GOODLAND       CLOUDY    39  34  82 N6        29.84F
HAYS           CLOUDY    37  28  70 S12       29.93F WCI  30
HILL CITY      CLOUDY    37  35  92 S12       29.90F WCI  29
RUSSELL        RAIN      37  37 100 S8        29.94F FOG
$$

KSZ061>065-074>080-084>089-312000-
SOUTHWEST KANSAS

CITY           SKY/WX    TMP DP  RH WIND       PRES   REMARKS
DODGE CITY     CLOUDY    38  35  89 S20G28    29.91F WCI  28
ELKHART          N/A     39  29  67 SW15        N/A  WCI  31
GARDEN CITY    CLOUDY    38  36  92 S20G25    29.86F WCI  28
LIBERAL        CLOUDY    39  34  81 S18       29.91F WCI  30
PRATT          RAIN      37  36  93 S20       29.98F WCI  27
$$

KSZ066>073-081>083-090>101-312000-
SOUTHEAST KANSAS

CITY           SKY/WX    TMP DP  RH WIND       PRES   REMARKS
CHANUTE        LGT RAIN  40  34  79 S9        30.15F
COFFEYVILLE    LGT RAIN  42  34  73 S5        30.16F
HUTCHINSON     LGT RAIN  40  37  89 S15       30.01F FOG     WCI  32
MEDICINE LODGE   N/A     39  38  96 S14G20    30.03S WCI  31
NEWTON         CLOUDY    39  34  81 S16       30.04F WCI  30
PARSONS        LGT RAIN  43  34  70 S5        30.16F
WICHITA INTL   LGT RAIN  40  38  93 S14       30.04F FOG     WCI  32
WICHITA JABRA  LGT RAIN  39  39 100 S15G23    30.04F WCI  31
WICHITA MCCONL LGT RAIN  39  38  93 SE15G22   30.05F WCI  31
WINFIELD       LGT RAIN  40  31  70 S14       30.09F WCI  32
$$

KSZ007>012-019>026-033>040-048>060-102>105-312000-
NORTHEAST KANSAS

CITY           SKY/WX    TMP DP  RH WIND       PRES   REMARKS
CONCORDIA      LGT SNOW  33  33 100 SE13      30.01F FOG     WCI  24
EMPORIA        LGT RAIN  36  36 100 S13       30.09F FOG     WCI  27
LAWRENCE       LGT RAIN  39  36  89 S13G20    30.14F FOG     WCI  31
MANHATTAN      LGT RAIN  35  34  96 SE6       30.08F FOG
MARYSVILLE     LGT SNOW  32  32 100 SE8       30.07F
OLATHE IND     LGT RAIN  39  36  89 S12       30.15F FOG     WCI  32
OLATHE EXE     LGT RAIN  39  36  89 S15G25    30.14F FOG     WCI  31
SALINA         LGT RAIN  39  36  89 S13       30.02F FOG     WCI  31
TOPEKA BILLARD LGT RAIN  37  35  92 S6        30.15F FOG
TOPEKA FORBES  LGT RAIN  37  34  89 S9        30.13F FOG
$$



USA.gov is the U.S. government's official web portal to all federal, state and local government web resources and services.